• Join FlightAware (Why Join?)
  • Login
  • US Flag 
07:14AM EST


 

Airport Tracker/Info


-or-


 

Live Flight TrackerFlight Track Log ✈ SWA1025 ✈ 06-Jan-2014 ✈ KSFO - KLAX

Flight Track Log - Related Links

Times and Time Zones

All times are in EST time to prevent confusion due to time zone crossing. See the SWA1025 flight status page for this flight to view local times or setup timezone preferences in your user account.

Time Position Orientation Groundspeed Altitude Reporting Facility
EST Latitude Longitude Course Direction KTS MPH feet Rate Location/Type
11:12AM 37.6519 -122.3653 135° Southeast 171 197 37,000  Level Oakland Center
11:14AM 37.7000 -122.4000 330° Northwest 236 272 3,800 -15,024 Descending Northern Cal TRACON
11:15AM 37.6606 -122.4461 223° Southwest 242 278 6,200 2,700 Climbing Oakland Center
11:16AM 37.5864 -122.4658 192° South 268 308 9,200 2,607 Climbing Oakland Center
11:17AM 37.5053 -122.4472 170° South 298 343 11,500 2,656 Climbing Oakland Center
11:18AM 37.2563 -121.9602 135° Southeast  Level Estimated
11:18AM 37.4439 -122.3572 131° Southeast 334 384 14,600  Level Oakland Center
11:19AM 37.3783 -122.2683 133° Southeast 344 396 17,300 2,311 Climbing Oakland Center
11:20AM 37.3100 -122.1742 132° Southeast 360 414 19,300 2,000 Climbing Oakland Center
11:21AM 37.2394 -122.0786 133° Southeast 373 429 21,400 1,951 Climbing Oakland Center
11:22AM 37.1650 -121.9783 133° Southeast 391 450 23,300 1,623 Climbing Oakland Center
11:23AM 37.0867 -121.8725 133° Southeast 409 471 24,700 1,869 Climbing Oakland Center
11:24AM 36.9875 -121.7428 134° Southeast 426 490 27,100 1,805 Climbing Oakland Center
11:25AM 36.9050 -121.6350 134° Southeast 428 493 28,400 1,415 Climbing Oakland Center
11:26AM 36.8211 -121.5208 133° Southeast 458 527 30,000 1,869 Climbing Oakland Center
11:27AM 36.7342 -121.4039 133° Southeast 434 499 32,200 1,672 Climbing Oakland Center
11:28AM 36.6517 -121.2972 134° Southeast 429 494 33,400 1,230 Climbing Oakland Center
11:29AM 36.5706 -121.1864 132° Southeast 432 497 34,700 1,317 Climbing Oakland Center
11:30AM 36.4903 -121.0783 133° Southeast 428 493 36,100 927 Climbing Oakland Center
11:31AM 36.4097 -120.9728 133° Southeast 423 487 36,600 295 Climbing Oakland Center
11:32AM 36.3269 -120.8656 134° Southeast 429 494 36,700 49 Climbing Oakland Center
11:33AM 36.2442 -120.7544 133° Southeast 435 501 36,700  Level Oakland Center
11:34AM 36.1603 -120.6456 134° Southeast 437 503 36,700  Level Oakland Center
11:35AM 36.0772 -120.5353 133° Southeast 438 504 36,700  Level Oakland Center
11:36AM 35.9936 -120.4253 133° Southeast 438 504 36,700  Level Oakland Center
11:37AM 35.9081 -120.3150 134° Southeast 442 509 36,700 146 Level Oakland Center
11:38AM 35.8081 -120.1847 133° Southeast 436 502 37,000 146 Climbing Oakland Center
11:39AM 35.7236 -120.0767 134° Southeast 434 499 37,000  Level Oakland Center
11:40AM 35.6361 -119.9692 135° Southeast 438 504 37,000  Level Oakland Center
11:41AM 35.5353 -119.8822 145° Southeast 440 506 37,000  Level Oakland Center
11:42AM 35.4342 -119.7950 145° Southeast 441 507 37,000  Level Oakland Center
11:43AM 35.3322 -119.7075 145° Southeast 444 511 37,000 -49 Level Oakland Center
11:44AM 35.2300 -119.6197 145° Southeast 447 514 36,900 -1,220 Descending Oakland Center
11:45AM 35.1278 -119.5311 145° Southeast 448 516 34,500 -2,656 Descending Oakland Center
11:46AM 35.0236 -119.4433 145° Southeast 453 521 31,500 -2,656 Descending Oakland Center
11:47AM 34.9211 -119.3567 145° Southeast 449 517 29,100 -2,293 Descending Oakland Center
11:48AM 34.8231 -119.2728 145° Southeast 439 505 26,800 -2,195 Descending Oakland Center
11:49AM 34.7281 -119.1931 145° Southeast 423 487 24,600 -2,219 Descending Oakland Center
11:51AM 34.5858 -119.0719 145° Southeast 402 463 21,400 -1,918 Descending Los Angeles Center
11:52AM 34.5178 -119.0144 145° Southeast 377 434 19,900 -1,728 Descending Los Angeles Center
11:53AM 34.4169 -118.9311 146° Southeast 363 418 17,800 -2,112 Descending Los Angeles Center
11:54AM 34.3314 -118.8706 150° Southeast 358 412 15,500 -2,081 Descending Los Angeles Center
11:55AM 34.2383 -118.8375 164° South 350 403 13,500 -1,809 Descending Los Angeles Center
11:56AM 34.1308 -118.7992 164° South 336 387 11,400 -1,489 Descending Los Angeles Center
11:57AM 34.0383 -118.7381 151° Southeast 305 351 10,100 -720 Descending Los Angeles Center
11:58AM 34.0275 -118.6408 98° East 291 335 9,900 -677 Descending Los Angeles Center
11:59AM 34.0183 -118.5433 96° East 271 312 8,700 -1,306 Descending Los Angeles Center
12:00PM 34.0111 -118.4625 96° East 265 305 7,200 -1,065 Descending Los Angeles Center
12:01PM 34.0164 -118.3808 86° East 262 302 6,500 -823 Descending Los Angeles Center
12:02PM 34.0261 -118.2878 83° East 236 272 5,500 -968 Descending Los Angeles Center
12:03PM 34.0189 -118.2189 97° East 217 250 4,500 -1,016 Descending Los Angeles Center
12:04PM 33.9739 -118.2397 201° Southwest 194 223 3,400 -1,200 Descending Los Angeles Center
12:05PM 33.9628 -118.3044 258° West 197 227 2,000 -1,113 Descending Los Angeles Center
12:06PM 33.9581 -118.3536 263° West 195 224 1,100 -871 Descending Los Angeles Center
12:07PM 33.9519 -118.4156 263° West 167 192 200 -857 Descending Los Angeles Center
12:09PM 33.9425 -118.4081 228° Southwest  Level Estimated